This is the latest recevied weather packets stored in our database for station/object KJ5JYX. If no packets are shown the sender has not sent any weather packets the latest 10 day(s).
| Time | Temp. | Humidity | Pressure | Rain* | Wind** | Luminosity | Snow |
|---|---|---|---|---|---|---|---|
| 1777483300 | 21.67° C | 90% | 1014.3 hPa | 0 mm | - | 200 W/m² | - |
| 1777481785 | 23.33° C | 92% | 1014.3 hPa | 0 mm | - | 62 W/m² | - |
| 1777481482 | 23.33° C | 92% | 1014.4 hPa | 0 mm | - | 57 W/m² | - |
| 1777481178 | 23.33° C | 92% | 1014.5 hPa | 0 mm | - | 57 W/m² | - |
| 1777480571 | 23.33° C | 92% | 1014.5 hPa | 0 mm | - | 72 W/m² | - |
| 1777476930 | 26.67° C | 90% | 1014.1 hPa | 0 mm | - | 195 W/m² | - |
| 1777471467 | 25° C | 96% | 1013.9 hPa | 0 mm | - | 47 W/m² | - |
| 1777470254 | 24.44° C | 96% | 1013.8 hPa | 0 mm | - | 50 W/m² | - |
| 1777469950 | 24.44° C | 96% | 1013.8 hPa | 0 mm | - | 40 W/m² | - |
| 1777469646 | 24.44° C | 96% | 1013.9 hPa | 0 mm | - | 23 W/m² | - |
| 1777469341 | 24.44° C | 96% | 1014 hPa | 0 mm | - | 30 W/m² | - |
| 1777469036 | 24.44° C | 96% | 1013.8 hPa | 0 mm | - | 27 W/m² | - |
| 1777468732 | 24.44° C | 96% | 1013.6 hPa | 0 mm | - | 25 W/m² | - |
| 1777468428 | 24.44° C | 96% | 1013.7 hPa | 0 mm | - | 15 W/m² | - |
| 1777468124 | 24.44° C | 96% | 1013.7 hPa | 0 mm | - | 11 W/m² | - |
| 1777467821 | 24.44° C | 95% | 1013.9 hPa | 0 mm | - | 11 W/m² | - |
| 1777467212 | 24.44° C | 95% | 1013.7 hPa | 0 mm | - | 13 W/m² | - |
| 1777466909 | 24.44° C | 95% | 1013.6 hPa | 0 mm | - | 10 W/m² | - |
| 1777466607 | 24.44° C | 95% | 1013.4 hPa | 0 mm | - | 7 W/m² | - |
| 1777466303 | 24.44° C | 95% | 1013.2 hPa | 0 mm | - | 7 W/m² | - |
| 1777466000 | 24.44° C | 95% | 1013.1 hPa | 0 mm | - | 7 W/m² | - |
| 1777465695 | 24.44° C | 95% | 1013.2 hPa | 0 mm | - | 6 W/m² | - |
| 1777465391 | 24.44° C | 95% | 1012.8 hPa | 0 mm | - | 5 W/m² | - |
| 1777465090 | 24.44° C | 95% | 1012.8 hPa | 0 mm | - | 4 W/m² | - |
| 1777464786 | 24.44° C | 95% | 1012.5 hPa | 0 mm | - | 3 W/m² | - |
* Rain latest hour (hover to see other rain measurements)
** Current wind speed in m/s (hover to see current wind gust speed)